CZ-6A DEB

Satellite information

Favourite Embed

Satellite Type and Status

DEBRISIN ORBIT

Key statistics

Satellite CZ-6A DEB at a glance.

Uptime

909

Days in orbit

Revolutions

≈ 14.4

Per day

Orbit

SSO

Sun Synchronous Orbit

Inclination

98.6

Latest

Satellite identification and parameters

Extended collection of information and parameters for CZ-6A DEB.

Object identification

Identified? True

Debris? True

Object name: CZ-6A DEB

International designator: 2022-151ABC

Object number (NORAD): 56236

Object ID (CCSDS): 56236

Country: PEOPLES REPUBLIC OF CHINA (PRC)

Current information (Y/N): Y

RCS size: SMALL

Orbital parameters

Period: 99.912 minutes

Inclination: 98.62 deg

SMA: 7132.43 km

Apoapsis: 806.455 km

Periapsis: 702.135 km

RAAN: 144.5907 deg

Eccentricy: 0.0073131

Argument of periapsis: 162.5384 deg

Mean anomaly: 197.8344 deg

Mean motion: 14.41273784 rev/day

Mean motion (dot): 0.00005037 rev/day2

B* drag term: 0.0015225 1/REarth

Two-line elements (TLE)

Creation date: May 8, 2025, 3:01 a.m.

Reference frame: TEME

Reference center: EARTH

Epoch: May 6, 2025, 11:34 p.m. UTC

TLE line 0: 0 CZ-6A DEB

TLE line 1: 1 56236U 22151ABC 25126.98218823 .00005037 00000-0 15225-2 0 9992

TLE line 2: 2 56236 98.6200 144.5907 0073131 162.5384 197.8344 14.41273784118055

Live tracking on map

Real-time ground track for satellite CZ-6A DEB.

In-orbit conjunctions

A list of the most updated potential collisions computed for object CZ-6A DEB.

Target Orbit TCA Probability of collision Miss distance Type
COSMOS 1354 LEO 2025-03-04 14:18:29 0.000113807 194.0 (m) PAYLOAD
CZ-6A DEB LEO 2024-10-28 14:59:03 0.0002634924 491.0 (m) DEBRIS

Associated space launch

Chinese satellite reported for atmospheric/ocean/environmental/spatial parameter research purposes, details TBD.

CZ-6A DEB was lifted into orbit during the mission ‘Long March 6A | Yunhai 3’, on board a Long March 6A space rocket.

The launch took place on Nov. 11, 2022, 10:52 p.m. from Launch Complex 9A.

For more information about the launch, click the button.

Launch to space Long March 6A | Yunhai 3
Long March 6A | Yunhai 3

Agency: N/A

Status: Launch Successful

Launch date: Nov. 11, 2022, 10:52 p.m. UTC

Rocket: Long March 6A

Launch pad: Launch Complex 9A

Location: Taiyuan Satellite Launch Center, People's Republic of China

...

Latest news about this satellite

There are no fresh news available about this satellite. Check back as we update our databases every day.


Newsletter sign-up

Weekly statistics, charts and insights to help you stay on top of the space industry.